Time,TemperatureF,DewpointF,PressureIn,WindDirection,WindDirectionDegrees,WindSpeedMPH,WindSpeedGustMPH,Humidity,HourlyPrecipIn,Conditions,Clouds,dailyrainin,SolarRadiationWatts/m^2,SoftwareType,DateUTC
2013-06-07 00:02:00,61.0,35.0,-100.00,North,-999,-999.0,4.0,37,0.00,,,-99.99,0.000000,,2013-06-07 06:02:00,
2013-06-07 00:12:00,61.0,35.0,-100.00,North,-999,-999.0,4.0,38,0.00,,,-99.99,0.000000,,2013-06-07 06:12:00,
2013-06-07 00:21:00,60.0,35.0,-100.00,North,-999,-999.0,4.0,39,0.00,,,-99.99,0.000000,,2013-06-07 06:21:00,
2013-06-07 00:32:00,60.0,34.0,-100.00,North,-999,-999.0,3.0,37,0.00,,,-99.99,0.000000,,2013-06-07 06:32:00,
2013-06-07 00:42:00,60.0,34.0,-100.00,North,-999,-999.0,4.0,38,0.00,,,-99.99,0.000000,,2013-06-07 06:42:00,
2013-06-07 00:52:00,59.0,35.0,-100.00,North,-999,-999.0,5.0,40,0.00,,,-99.99,0.000000,,2013-06-07 06:52:00,
2013-06-07 01:02:00,59.0,36.0,-100.00,North,-999,-999.0,4.0,42,0.00,,,-99.99,0.000000,,2013-06-07 07:02:00,
2013-06-07 01:12:00,59.0,36.0,-100.00,North,-999,-999.0,5.0,42,0.00,,,-99.99,0.000000,,2013-06-07 07:12:00,
2013-06-07 01:22:00,60.0,35.0,-100.00,North,-999,-999.0,5.0,40,0.00,,,-99.99,0.000000,,2013-06-07 07:22:00,
2013-06-07 01:32:00,58.0,37.0,-100.00,North,-999,-999.0,4.0,46,0.00,,,-99.99,0.000000,,2013-06-07 07:32:00,
2013-06-07 01:42:00,58.0,37.0,-100.00,North,-999,-999.0,4.0,45,0.00,,,-99.99,0.000000,,2013-06-07 07:42:00,
2013-06-07 01:52:00,56.0,36.0,-100.00,North,-999,-999.0,3.0,46,0.00,,,-99.99,0.000000,,2013-06-07 07:52:00,
2013-06-07 02:02:00,56.0,35.0,-100.00,North,-999,-999.0,4.0,45,0.00,,,-99.99,0.000000,,2013-06-07 08:02:00,
2013-06-07 02:12:00,63.0,35.0,-100.00,North,-999,-999.0,8.0,35,0.00,,,-99.99,0.000000,,2013-06-07 08:12:00,
2013-06-07 02:22:00,65.0,33.0,-100.00,North,-999,-999.0,11.0,31,0.00,,,-99.99,0.000000,,2013-06-07 08:22:00,
2013-06-07 02:32:00,65.0,34.0,-100.00,North,-999,-999.0,13.0,31,0.00,,,-99.99,0.000000,,2013-06-07 08:32:00,
2013-06-07 02:42:00,66.0,33.0,-100.00,North,-999,-999.0,12.0,29,0.00,,,-99.99,0.000000,,2013-06-07 08:42:00,
2013-06-07 02:50:00,64.0,31.0,-100.00,North,-999,-999.0,11.0,29,0.00,,,-99.99,0.000000,,2013-06-07 08:50:00,
2013-06-07 02:52:00,65.0,32.0,-100.00,North,-999,-999.0,11.0,29,0.00,,,-99.99,0.000000,,2013-06-07 08:52:00,
2013-06-07 03:02:00,65.0,32.0,-100.00,North,-999,-999.0,10.0,29,0.00,,,-99.99,0.000000,,2013-06-07 09:02:00,
2013-06-07 03:12:00,64.0,31.0,-100.00,North,-999,-999.0,11.0,29,0.00,,,-99.99,0.000000,,2013-06-07 09:12:00,
2013-06-07 03:22:00,64.0,31.0,-100.00,North,-999,-999.0,11.0,29,0.00,,,-99.99,0.000000,,2013-06-07 09:22:00,
2013-06-07 03:32:00,64.0,31.0,-100.00,North,-999,-999.0,11.0,29,0.00,,,-99.99,0.000000,,2013-06-07 09:32:00,
2013-06-07 03:43:00,64.0,31.0,-100.00,North,-999,-999.0,11.0,29,0.00,,,-99.99,0.000000,,2013-06-07 09:43:00,
2013-06-07 04:23:00,58.0,33.0,-100.00,North,-999,-999.0,4.0,38,0.00,,,-99.99,0.000000,,2013-06-07 10:23:00,
2013-06-07 04:33:00,58.0,34.0,-100.00,North,-999,-999.0,4.0,41,0.00,,,-99.99,0.000000,,2013-06-07 10:33:00,
2013-06-07 04:42:00,61.0,35.0,-100.00,North,-999,-999.0,5.0,39,0.00,,,-99.99,0.000000,,2013-06-07 10:42:00,
2013-06-07 04:53:00,56.0,36.0,-100.00,North,-999,-999.0,4.0,47,0.00,,,-99.99,0.000000,,2013-06-07 10:53:00,
2013-06-07 05:02:00,55.0,36.0,-100.00,North,-999,-999.0,4.0,49,0.00,,,-99.99,0.000000,,2013-06-07 11:02:00,
2013-06-07 05:12:00,58.0,33.0,-100.00,North,-999,-999.0,7.0,38,0.00,,,-99.99,0.000000,,2013-06-07 11:12:00,
2013-06-07 05:22:00,62.0,30.0,-100.00,North,-999,-999.0,10.0,30,0.00,,,-99.99,0.000000,,2013-06-07 11:22:00,
2013-06-07 05:32:00,60.0,33.0,-100.00,North,-999,-999.0,7.0,35,0.00,,,-99.99,0.000000,,2013-06-07 11:32:00,
2013-06-07 05:42:00,60.0,31.0,-100.00,North,-999,-999.0,7.0,33,0.00,,,-99.99,0.000000,,2013-06-07 11:42:00,
2013-06-07 05:52:00,59.0,33.0,-100.00,North,-999,-999.0,6.0,37,0.00,,,-99.99,0.000000,,2013-06-07 11:52:00,
2013-06-07 06:02:00,58.0,33.0,-100.00,North,-999,-999.0,5.0,38,0.00,,,-99.99,0.000000,,2013-06-07 12:02:00,
2013-06-07 06:12:00,56.0,32.0,-100.00,North,-999,-999.0,3.0,40,0.00,,,-99.99,3.000000,,2013-06-07 12:12:00,
2013-06-07 06:22:00,55.0,33.0,-100.00,North,-999,-999.0,4.0,43,0.00,,,-99.99,6.000000,,2013-06-07 12:22:00,
2013-06-07 06:32:00,56.0,33.0,-100.00,North,-999,-999.0,4.0,41,0.00,,,-99.99,12.000000,,2013-06-07 12:32:00,
2013-06-07 06:42:00,57.0,34.0,-100.00,North,-999,-999.0,5.0,41,0.00,,,-99.99,19.000000,,2013-06-07 12:42:00,
2013-06-07 06:52:00,60.0,31.0,-100.00,North,-999,-999.0,8.0,34,0.00,,,-99.99,38.000000,,2013-06-07 12:52:00,
2013-06-07 07:02:00,61.0,32.0,-100.00,North,-999,-999.0,8.0,33,0.00,,,-99.99,43.000000,,2013-06-07 13:02:00,
2013-06-07 07:12:00,61.0,32.0,-100.00,North,-999,-999.0,8.0,33,0.00,,,-99.99,43.000000,,2013-06-07 13:12:00,
2013-06-07 07:22:00,61.0,31.0,-100.00,North,-999,-999.0,6.0,32,0.00,,,-99.99,139.000000,,2013-06-07 13:22:00,
2013-06-07 07:32:00,62.0,38.0,-100.00,North,-999,-999.0,10.0,41,0.00,,,-99.99,175.000000,,2013-06-07 13:32:00,
2013-06-07 07:42:00,62.0,33.0,-100.00,North,-999,-999.0,8.0,33,0.00,,,-99.99,206.000000,,2013-06-07 13:42:00,
2013-06-07 07:50:00,64.0,39.0,-100.00,North,-999,-999.0,4.0,40,0.00,,,-99.99,322.000000,,2013-06-07 13:50:00,
2013-06-07 07:52:00,62.0,33.0,-100.00,North,-999,-999.0,8.0,33,0.00,,,-99.99,206.000000,,2013-06-07 13:52:00,
2013-06-07 08:02:00,63.0,38.0,-100.00,North,-999,-999.0,4.0,39,0.00,,,-99.99,283.000000,,2013-06-07 14:02:00,
2013-06-07 08:12:00,64.0,39.0,-100.00,North,-999,-999.0,4.0,40,0.00,,,-99.99,322.000000,,2013-06-07 14:12:00,
2013-06-07 08:22:00,64.0,39.0,-100.00,North,-999,-999.0,4.0,40,0.00,,,-99.99,322.000000,,2013-06-07 14:22:00,
2013-06-07 08:32:00,64.0,39.0,-100.00,North,-999,-999.0,4.0,40,0.00,,,-99.99,322.000000,,2013-06-07 14:32:00,
2013-06-07 08:42:00,64.0,39.0,-100.00,North,-999,-999.0,4.0,40,0.00,,,-99.99,322.000000,,2013-06-07 14:42:00,
2013-06-07 09:23:00,68.0,38.0,-100.00,North,-999,-999.0,5.0,33,0.00,,,-99.99,610.000000,,2013-06-07 15:23:00,
2013-06-07 09:33:00,69.0,38.0,-100.00,North,-999,-999.0,6.0,32,0.00,,,-99.99,643.000000,,2013-06-07 15:33:00,
2013-06-07 09:43:00,70.0,38.0,-100.00,North,-999,-999.0,7.0,31,0.00,,,-99.99,682.000000,,2013-06-07 15:43:00,
2013-06-07 09:53:00,71.0,40.0,-100.00,North,-999,-999.0,6.0,32,0.00,,,-99.99,719.000000,,2013-06-07 15:53:00,
2013-06-07 10:03:00,72.0,40.0,-100.00,North,-999,-999.0,7.0,31,0.00,,,-99.99,754.000000,,2013-06-07 16:03:00,
2013-06-07 10:12:00,73.0,40.0,-100.00,North,-999,-999.0,6.0,30,0.00,,,-99.99,791.000000,,2013-06-07 16:12:00,
2013-06-07 10:22:00,74.0,39.0,-100.00,North,-999,-999.0,5.0,28,0.00,,,-99.99,826.000000,,2013-06-07 16:22:00,
2013-06-07 10:32:00,75.0,40.0,-100.00,North,-999,-999.0,6.0,28,0.00,,,-99.99,857.000000,,2013-06-07 16:32:00,
2013-06-07 10:43:00,76.0,39.0,-100.00,North,-999,-999.0,5.0,26,0.00,,,-99.99,895.000000,,2013-06-07 16:43:00,
2013-06-07 10:52:00,77.0,36.0,-100.00,North,-999,-999.0,8.0,23,0.00,,,-99.99,920.000000,,2013-06-07 16:52:00,
2013-06-07 11:02:00,78.0,39.0,-100.00,North,-999,-999.0,8.0,24,0.00,,,-99.99,913.000000,,2013-06-07 17:02:00,
2013-06-07 11:12:00,80.0,41.0,-100.00,North,-999,-999.0,7.0,25,0.00,,,-99.99,913.000000,,2013-06-07 17:12:00,
2013-06-07 11:22:00,81.0,36.0,-100.00,North,-999,-999.0,7.0,20,0.00,,,-99.99,997.000000,,2013-06-07 17:22:00,
2013-06-07 11:32:00,81.0,40.0,-100.00,North,-999,-999.0,9.0,23,0.00,,,-99.99,981.000000,,2013-06-07 17:32:00,
2013-06-07 11:42:00,82.0,40.0,-100.00,North,-999,-999.0,8.0,22,0.00,,,-99.99,1058.000000,,2013-06-07 17:42:00,
2013-06-07 11:52:00,83.0,38.0,-100.00,North,-999,-999.0,11.0,20,0.00,,,-99.99,1083.000000,,2013-06-07 17:52:00,
2013-06-07 12:02:00,83.0,37.0,-100.00,North,-999,-999.0,11.0,19,0.00,,,-99.99,1070.000000,,2013-06-07 18:02:00,
2013-06-07 12:12:00,84.0,41.0,-100.00,North,-999,-999.0,10.0,22,0.00,,,-99.99,919.000000,,2013-06-07 18:12:00,
2013-06-07 12:22:00,85.0,35.0,-100.00,North,-999,-999.0,8.0,17,0.00,,,-99.99,1177.000000,,2013-06-07 18:22:00,
2013-06-07 12:34:00,85.0,37.0,-100.00,North,-999,-999.0,6.0,18,0.00,,,-99.99,1184.000000,,2013-06-07 18:34:00,
2013-06-07 12:42:00,86.0,41.0,-100.00,North,-999,-999.0,10.0,20,0.00,,,-99.99,1202.000000,,2013-06-07 18:42:00,
2013-06-07 12:50:00,87.0,38.0,-100.00,North,-999,-999.0,9.0,18,0.00,,,-99.99,1281.000000,,2013-06-07 18:50:00,
2013-06-07 12:53:00,86.0,33.0,-100.00,North,-999,-999.0,7.0,15,0.00,,,-99.99,1298.000000,,2013-06-07 18:53:00,
2013-06-07 13:03:00,85.0,30.0,-100.00,North,-999,-999.0,7.0,14,0.00,,,-99.99,906.000000,,2013-06-07 19:03:00,
2013-06-07 13:12:00,87.0,38.0,-100.00,North,-999,-999.0,9.0,18,0.00,,,-99.99,1281.000000,,2013-06-07 19:12:00,
2013-06-07 13:22:00,87.0,38.0,-100.00,North,-999,-999.0,9.0,18,0.00,,,-99.99,1281.000000,,2013-06-07 19:22:00,
2013-06-07 13:32:00,87.0,38.0,-100.00,North,-999,-999.0,9.0,18,0.00,,,-99.99,1281.000000,,2013-06-07 19:32:00,
2013-06-07 13:44:00,87.0,38.0,-100.00,North,-999,-999.0,9.0,18,0.00,,,-99.99,1281.000000,,2013-06-07 19:44:00,
2013-06-07 14:27:00,87.0,37.0,-100.00,North,-999,-999.0,14.0,17,0.00,,,-99.99,1339.000000,,2013-06-07 20:27:00,
2013-06-07 14:40:00,87.0,36.0,-100.00,North,-999,-999.0,15.0,16,0.00,,,-99.99,1131.000000,,2013-06-07 20:40:00,
2013-06-07 14:49:00,88.0,31.0,-100.00,North,-999,-999.0,14.0,13,0.00,,,-99.99,1127.000000,,2013-06-07 20:49:00,
2013-06-07 14:57:00,88.0,35.0,-100.00,North,-999,-999.0,15.0,15,0.00,,,-99.99,1066.000000,,2013-06-07 20:57:00,
2013-06-07 15:13:00,88.0,31.0,-100.00,North,-999,-999.0,11.0,13,0.00,,,-99.99,797.000000,,2013-06-07 21:13:00,
2013-06-07 15:22:00,88.0,29.0,-100.00,North,-999,-999.0,13.0,12,0.00,,,-99.99,1185.000000,,2013-06-07 21:22:00,
2013-06-07 15:44:00,89.0,32.0,-100.00,North,-999,-999.0,13.0,13,0.00,,,-99.99,1088.000000,,2013-06-07 21:44:00,
2013-06-07 16:05:00,88.0,33.0,-100.00,North,-999,-999.0,15.0,14,0.00,,,-99.99,1044.000000,,2013-06-07 22:05:00,
2013-06-07 16:15:00,89.0,32.0,-100.00,North,-999,-999.0,15.0,13,0.00,,,-99.99,1018.000000,,2013-06-07 22:15:00,
2013-06-07 16:23:00,89.0,32.0,-100.00,North,-999,-999.0,17.0,13,0.00,,,-99.99,1003.000000,,2013-06-07 22:23:00,
2013-06-07 16:33:00,88.0,36.0,-100.00,North,-999,-999.0,16.0,16,0.00,,,-99.99,987.000000,,2013-06-07 22:33:00,
2013-06-07 16:44:00,88.0,33.0,-100.00,North,-999,-999.0,15.0,14,0.00,,,-99.99,622.000000,,2013-06-07 22:44:00,
2013-06-07 17:14:00,87.0,35.0,-100.00,North,-999,-999.0,13.0,16,0.00,,,-99.99,657.000000,,2013-06-07 23:14:00,
2013-06-07 17:22:00,88.0,36.0,-100.00,North,-999,-999.0,15.0,16,0.00,,,-99.99,715.000000,,2013-06-07 23:22:00,
2013-06-07 17:33:00,88.0,34.0,-100.00,North,-999,-999.0,13.0,15,0.00,,,-99.99,777.000000,,2013-06-07 23:33:00,
2013-06-07 17:44:00,87.0,34.0,-100.00,North,-999,-999.0,19.0,15,0.00,,,-99.99,714.000000,,2013-06-07 23:44:00,
2013-06-07 17:50:00,87.0,33.0,-100.00,North,-999,-999.0,14.0,15,0.00,,,-99.99,628.000000,,2013-06-07 23:50:00,
2013-06-07 17:53:00,87.0,34.0,-100.00,North,-999,-999.0,19.0,15,0.00,,,-99.99,714.000000,,2013-06-07 23:53:00,
2013-06-07 18:03:00,88.0,33.0,-100.00,North,-999,-999.0,14.0,14,0.00,,,-99.99,658.000000,,2013-06-08 00:03:00,
2013-06-07 18:14:00,87.0,33.0,-100.00,North,-999,-999.0,14.0,15,0.00,,,-99.99,628.000000,,2013-06-08 00:14:00,
2013-06-07 18:33:00,87.0,33.0,-100.00,North,-999,-999.0,14.0,15,0.00,,,-99.99,628.000000,,2013-06-08 00:33:00,
2013-06-07 18:43:00,87.0,33.0,-100.00,North,-999,-999.0,14.0,15,0.00,,,-99.99,628.000000,,2013-06-08 00:43:00,
2013-06-07 19:29:00,82.0,36.0,-100.00,North,-999,-999.0,10.0,19,0.00,,,-99.99,203.000000,,2013-06-08 01:29:00,
2013-06-07 19:39:00,82.0,36.0,-100.00,North,-999,-999.0,9.0,19,0.00,,,-99.99,194.000000,,2013-06-08 01:39:00,
2013-06-07 19:47:00,83.0,38.0,-100.00,North,-999,-999.0,10.0,20,0.00,,,-99.99,332.000000,,2013-06-08 01:47:00,
2013-06-07 19:58:00,83.0,37.0,-100.00,North,-999,-999.0,11.0,19,0.00,,,-99.99,296.000000,,2013-06-08 01:58:00,
2013-06-07 20:04:00,83.0,37.0,-100.00,North,-999,-999.0,8.0,19,0.00,,,-99.99,229.000000,,2013-06-08 02:04:00,
2013-06-07 20:13:00,83.0,36.0,-100.00,North,-999,-999.0,8.0,19,0.00,,,-99.99,174.000000,,2013-06-08 02:13:00,
2013-06-07 20:22:00,82.0,38.0,-100.00,North,-999,-999.0,7.0,21,0.00,,,-99.99,134.000000,,2013-06-08 02:22:00,
2013-06-07 20:33:00,81.0,38.0,-100.00,North,-999,-999.0,7.0,22,0.00,,,-99.99,104.000000,,2013-06-08 02:33:00,
2013-06-07 20:43:00,78.0,41.0,-100.00,North,-999,-999.0,5.0,27,0.00,,,-99.99,34.000000,,2013-06-08 02:43:00,
2013-06-07 20:53:00,75.0,43.0,-100.00,North,-999,-999.0,4.0,32,0.00,,,-99.99,33.000000,,2013-06-08 02:53:00,
2013-06-07 21:04:00,72.0,43.0,-100.00,North,-999,-999.0,3.0,35,0.00,,,-99.99,14.000000,,2013-06-08 03:04:00,
2013-06-07 21:13:00,69.0,41.0,-100.00,North,-999,-999.0,3.0,35,0.00,,,-99.99,8.000000,,2013-06-08 03:13:00,
2013-06-07 21:22:00,68.0,41.0,-100.00,North,-999,-999.0,3.0,37,0.00,,,-99.99,3.000000,,2013-06-08 03:22:00,
2013-06-07 21:33:00,68.0,37.0,-100.00,North,-999,-999.0,4.0,32,0.00,,,-99.99,1.000000,,2013-06-08 03:33:00,
2013-06-07 21:46:00,68.0,37.0,-100.00,North,-999,-999.0,5.0,32,0.00,,,-99.99,0.000000,,2013-06-08 03:46:00,
2013-06-07 21:54:00,69.0,35.0,-100.00,North,-999,-999.0,6.0,29,0.00,,,-99.99,0.000000,,2013-06-08 03:54:00,
2013-06-07 22:03:00,67.0,36.0,-100.00,North,-999,-999.0,4.0,32,0.00,,,-99.99,0.000000,,2013-06-08 04:03:00,
2013-06-07 22:12:00,67.0,37.0,-100.00,North,-999,-999.0,4.0,34,0.00,,,-99.99,0.000000,,2013-06-08 04:12:00,
2013-06-07 22:22:00,67.0,37.0,-100.00,North,-999,-999.0,5.0,33,0.00,,,-99.99,0.000000,,2013-06-08 04:22:00,
2013-06-07 22:33:00,68.0,35.0,-100.00,North,-999,-999.0,4.0,30,0.00,,,-99.99,0.000000,,2013-06-08 04:33:00,
2013-06-07 22:42:00,67.0,36.0,-100.00,North,-999,-999.0,5.0,32,0.00,,,-99.99,0.000000,,2013-06-08 04:42:00,
2013-06-07 22:50:00,65.0,36.0,-100.00,North,-999,-999.0,4.0,34,0.00,,,-99.99,0.000000,,2013-06-08 04:50:00,
2013-06-07 22:53:00,67.0,36.0,-100.00,North,-999,-999.0,6.0,31,0.00,,,-99.99,0.000000,,2013-06-08 04:53:00,
2013-06-07 23:02:00,68.0,37.0,-100.00,North,-999,-999.0,5.0,32,0.00,,,-99.99,0.000000,,2013-06-08 05:02:00,
2013-06-07 23:12:00,65.0,36.0,-100.00,North,-999,-999.0,4.0,34,0.00,,,-99.99,0.000000,,2013-06-08 05:12:00,
2013-06-07 23:22:00,65.0,36.0,-100.00,North,-999,-999.0,4.0,34,0.00,,,-99.99,0.000000,,2013-06-08 05:22:00,
2013-06-07 23:32:00,65.0,36.0,-100.00,North,-999,-999.0,4.0,34,0.00,,,-99.99,0.000000,,2013-06-08 05:32:00,
2013-06-07 23:42:00,65.0,36.0,-100.00,North,-999,-999.0,4.0,34,0.00,,,-99.99,0.000000,,2013-06-08 05:42:00,